Location: Oberstdorf
(47.4188°N, 10.2969°E)
Time: 00:08:26
(UTC+01:00)

ISS - Pass Details

Date: 11 January 2018
Orbit: 402 x 407 km, 51.6° (Epoch: 20 January)

Event Time Altitude Azimuth Distance (km) Brightness Sun altitude
Exits shadow 07:14:07 11° 283° (WNW) 1,404 -1.8 -8.3°
Maximum altitude 07:17:02 38° 215° (SW) 639 -2.9 -7.8°
Drops below altitude 10° 07:20:06 10° 145° (SE) 1,462 0.0 -7.4°
Sets 07:22:15 0° 137° (SE) 2,319 1.5 -7.0°
